Curacao, Curacao

2:27 AM AST on November 20, 2017 (GMT -0400)
Willemstad-Hato International

Weather History for TNCC - November, 2012

Change the Weather History Date:

Wednesday, November 14, 2012

  Actual Average Record
Temperature  
Mean Temperature 80 °F -  
Max Temperature 84 °F 85 °F 92 °F (2017)
Min Temperature 75 °F 76 °F 75 °F (2004)
Cooling Degree Days 14    
Growing Degree Days 30 (Base 50)    
Moisture  
Dew Point 75 °F    
Average Humidity 81    
Maximum Humidity 94    
Minimum Humidity 61    
Precipitation  
Precipitation 0.00 in 0.13 in - ()
Sea Level Pressure  
Sea Level Pressure 29.82 in    
Wind  
Wind Speed 6 mph ()    
Max Wind Speed 13 mph    
Max Gust Speed -    
Visibility 6.2 miles    
Events Rain    
Averages and records for this station are not official NWS values.
T = Trace of Precipitation, MM = Missing Value Source: Averaged Metar Reports

Daily Weather History Graph

Daily Weather History Graph

Search for Another Location

Airport or City:

Trip Planner

Search our weather history database for the weather conditions in past years. The results will help you decide how hot, cold, wet, or windy it might be!

Date:

Astronomy

Nov. 14, 2012 Rise Set
Actual Time 6:33 AM AST 6:07 PM AST
Civil Twilight 6:10 AM AST 6:29 PM AST
Nautical Twilight 5:45 AM AST 6:55 PM AST
Astronomical Twilight 5:19 AM AST 7:20 PM AST
Moon 7:10 AM AST (11/14) 7:02 PM AST (11/14)
Length of Visible Light 12h 18m
Length of Day
11h 34m
New Moon, 1% of the Moon is Illuminated
Nov 14
New Moon
Nov 20
First Quarter
Nov 28
Full
Dec 6
Last Quarter
Dec 13
New

Hourly Weather History & Observations

Time (AST) Temp. Heat Index Dew Point Humidity Pressure Visibility Wind Dir Wind Speed Gust Speed Precip Events Conditions
12:00 AM 77.0 °F - 73.4 °F 89% 29.86 in 6.2 mi SE 3.5 mph - N/A   Partly Cloudy
1:00 AM 77.0 °F - 75.2 °F 94% 29.83 in 6.2 mi SSE 3.5 mph - N/A   Partly Cloudy
2:00 AM 76 °F - 74 °F 90% 29.82 in 25 mi South 4.6 mph - -   Scattered Clouds
2:00 AM 75.2 °F - 73.4 °F 94% 29.80 in 6.2 mi SSE 2.3 mph - N/A   Partly Cloudy
3:00 AM 75.2 °F - 73.4 °F 94% 29.80 in 6.2 mi SE 2.3 mph - N/A   Partly Cloudy
4:00 AM 75.2 °F - 73.4 °F 94% 29.77 in 6.2 mi SE 3.5 mph - N/A   Partly Cloudy
5:00 AM 76 °F - 74 °F 91% 29.80 in 25 mi SSE 4.6 mph - -   Scattered Clouds
5:00 AM 75.2 °F - 73.4 °F 94% 29.80 in 6.2 mi SE 3.5 mph - N/A   Partly Cloudy
6:00 AM 75.2 °F - 73.4 °F 94% 29.80 in 6.2 mi SE 4.6 mph - N/A   Partly Cloudy
7:00 AM 77.0 °F - 75.2 °F 94% 29.83 in 6.2 mi SE 3.5 mph - N/A Rain Light Rain Showers
8:00 AM 80.6 °F 86.2 °F 75.2 °F 84% 29.86 in 6.2 mi SE 5.8 mph - N/A   Scattered Clouds
9:00 AM 82.4 °F 89.5 °F 75.2 °F 79% 29.89 in 6.2 mi ESE 8.1 mph - N/A   Scattered Clouds
10:00 AM 84.2 °F 92.3 °F 75.2 °F 74% 29.89 in 6.2 mi East 11.5 mph - N/A   Scattered Clouds
11:00 AM 82.4 °F 89.5 °F 75.2 °F 79% 29.89 in 6.2 mi East 12.7 mph - N/A   Scattered Clouds
12:00 PM 84.2 °F 92.3 °F 75.2 °F 74% 29.86 in 6.2 mi East 11.5 mph - N/A   Scattered Clouds
1:00 PM 86.0 °F 95.1 °F 75.2 °F 70% 29.83 in 6.2 mi East 12.7 mph - N/A   Partly Cloudy
2:00 PM 86 °F - 76 °F 66% 29.81 in 31 mi East 10.4 mph - -   Partly Cloudy
2:00 PM 86.0 °F 95.1 °F 75.2 °F 70% 29.80 in 6.2 mi East 10.4 mph - N/A   Scattered Clouds
3:00 PM 86.0 °F 95.1 °F 75.2 °F 70% 29.80 in 6.2 mi East 11.5 mph - N/A   Scattered Clouds
4:00 PM 84.2 °F 90.9 °F 73.4 °F 70% 29.77 in 6.2 mi East 11.5 mph - N/A   Partly Cloudy
5:00 PM 85 °F - 74 °F 61% 29.78 in 31 mi ESE 12.7 mph - -   Scattered Clouds
5:00 PM 86.0 °F 93.4 °F 73.4 °F 66% 29.77 in 6.2 mi East 9.2 mph - N/A   Partly Cloudy
6:00 PM 80.6 °F 85.4 °F 73.4 °F 79% 29.77 in 6.2 mi East 9.2 mph - N/A   Partly Cloudy
7:00 PM 80.6 °F 86.2 °F 75.2 °F 84% 29.80 in 6.2 mi East 11.5 mph - N/A   Partly Cloudy
8:00 PM 83 °F - 75 °F 71% 29.83 in 31 mi East 11.5 mph - -   Scattered Clouds
8:00 PM 80.6 °F 86.2 °F 75.2 °F 84% 29.83 in 6.2 mi East 11.5 mph - N/A   Partly Cloudy
9:00 PM 80.6 °F 86.2 °F 75.2 °F 84% 29.86 in 6.2 mi East 10.4 mph - N/A   Partly Cloudy
10:00 PM 82.4 °F 89.5 °F 75.2 °F 79% 29.86 in 6.2 mi East 10.4 mph - N/A   Partly Cloudy
11:00 PM 79 °F - 74 °F 82% 29.87 in 31 mi ESE 9.2 mph - -   Scattered Clouds
11:00 PM 78.8 °F - 75.2 °F 89% 29.86 in 6.2 mi ESE 9.2 mph - N/A   Partly Cloudy